Tracking 28126 objects as of 1-Oct-2023
HD Live streaming from Space Station
objects crossing your sky now

INTELSAT 706

Track INTELSAT 706 now!
INTELSAT 706 is classified as:


NORAD ID: 23571
Int'l Code: 1995-023A
Perigee: 36,128.5 km
Apogee: 36,149.5 km
Inclination: 8.9 °
Period: 1,453.8 minutes
Semi major axis: 42509 km
RCS: 22.4876 m2 (large)
Launch date: May 17, 1995
Source: International Telecommunications Satellite Organization (ITSO)
Launch site: FRENCH GUIANA (FRGUI)

42 C-band, 36 Ku-band; broadcasting, business services, direct-to-home TV broadcasting, telecommunications, VSATnetworks Atlantic Ocean region.
Your satellite tracking list
Your tracking list is empty




NASA's NSSDC Master Catalog

Two Line Element Set (TLE):
1 23571U 95023A   23273.14145046 -.00000102  00000-0  00000-0 0  9993
2 23571   8.9075  52.6962 0002470 128.1361 254.4384  0.99052697103511
Source of the keplerian elements: AFSPC